CW0927 Weather Reports


Display with metric or nautical units.
time (UTC)temp
F
wind
direction
speed
MPH
gust
MPH
rain 1hr
in
rain 24hr
in
rain mn
in
humidity
%
barometer
mb
20260903171349 84 130 3.0 5.0 0.00 0.57 0.01 85 1016.9
20260903170854 84 104 1.0 3.0 0.00 0.57 0.01 85 1017.1
20260903170338 84 74 1.0 4.0 0.00 0.57 0.01 86 1017.1
20260903165823 84 121 2.0 4.0 0.00 0.57 0.01 86 1017.2
20260903165351 83 82 1.0 6.0 0.00 0.57 0.01 86 1017.2
20260903164835 84 79 3.0 7.0 0.00 0.57 0.01 85 1017.3
20260903164339 84 70 3.0 6.0 0.00 0.57 0.01 85 1017.4
20260903163843 84 139 3.0 7.0 0.00 0.57 0.01 85 1017.5
20260903163347 84 98 1.0 6.0 0.00 0.57 0.01 87 1017.5
20260903162848 84 81 2.0 6.0 0.00 0.57 0.01 87 1017.5
20260903162348 83 80 3.0 7.0 0.00 0.57 0.01 87 1017.4
20260903161847 83 135 3.0 7.0 0.00 0.57 0.01 88 1017.4
20260903161346 82 126 1.0 7.0 0.00 0.57 0.01 88 1017.3
20260903160847 82 112 3.0 8.0 0.00 0.57 0.01 89 1017.3
20260903160349 82 119 1.0 5.0 0.00 0.57 0.01 91 1017.2
20260903155846 81 77 2.0 4.0 0.00 0.57 0.01 91 1017.2
20260903155343 81 80 1.0 4.0 0.00 0.57 0.01 91 1017.3
20260903154843 81 78 2.0 4.0 0.01 0.57 0.01 92 1017.4
20260903154343 81 69 1.0 4.0 0.01 0.57 0.01 93 1017.4
20260903153843 81 76 2.0 4.0 0.01 0.57 0.01 93 1017.4
20260903153345 80 80 1.0 4.0 0.01 0.57 0.01 93 1017.4
20260903152823 80 76 2.0 6.0 0.01 0.57 0.01 94 1017.4
20260903152322 80 86 2.0 6.0 0.01 0.57 0.01 95 1017.4
20260903151850 79 88 1.0 4.0 0.01 0.57 0.01 95 1017.4
20260903151350 79 100 1.0 4.0 0.01 0.57 0.01 95 1017.5
20260903150850 79 99 1.0 4.0 0.01 0.57 0.01 95 1017.5
20260903150329 79 96 1.0 4.0 0.01 0.57 0.01 96 1017.5
20260903145825 79 103 1.0 4.0 0.01 0.57 0.01 96 1017.5
20260903145357 79 67 1.0 4.0 0.00 0.56 0.00 96 1017.4
20260903144837 79 118 1.0 4.0 0.00 0.56 0.00 96 1017.5
20260903144339 79 109 1.0 3.0 0.00 0.56 0.00 96 1017.5
20260903143841 79 87 1.0 3.0 0.00 0.56 0.00 96 1017.4
20260903143324 78 84 1.0 6.0 0.00 0.56 0.00 96 1017.4
20260903142825 79 80 1.0 6.0 0.00 0.56 0.00 96 1017.5
20260903142327 79 55 1.0 4.0 0.00 0.56 0.00 96 1017.5
20260903141829 79 110 0.0 2.0 0.00 0.56 0.00 97 1017.4
20260903141331 79 78 1.0 2.0 0.00 0.56 0.00 97 1017.3
20260903140902 79 76 0.0 1.0 0.00 0.56 0.00 97 1017.3
20260903140343 79 76 0.0 1.0 0.00 0.56 0.00 97 1017.3
20260903135823 79 76 0.0 1.0 0.00 0.56 0.00 97 1017.2
20260903135330 79 76 0.0 0.0 0.00 0.56 0.00 97 1017.1
20260903134831 79 76 0.0 1.0 0.00 0.56 0.00 97 1017.2
20260903134335 79 76 0.0 1.0 0.00 0.56 0.00 97 1017.2
20260903133838 79 76 0.0 2.0 0.00 0.56 0.00 97 1017.2
20260903133340 79 76 0.0 2.0 0.00 0.56 0.00 97 1017.1
20260903132841 79 76 0.0 0.0 0.00 0.56 0.00 97 1016.9
20260903132324 78 76 0.0 1.0 0.00 0.56 0.00 97 1016.9
20260903131823 78 76 0.0 0.0 0.00 0.56 0.00 97 1016.8
20260903131323 78 76 0.0 0.0 0.00 0.56 0.00 96 1016.7
20260903130823 77 76 0.0 0.0 0.00 0.56 0.00 96 1016.9
20260903130351 77 76 0.0 0.0 0.00 0.56 0.00 96 1017.0
20260903125851 77 76 0.0 0.0 0.00 0.56 0.00 96 1016.9
20260903125343 77 76 0.0 2.0 0.00 0.56 0.00 96 1016.8
20260903124844 77 76 0.0 2.0 0.00 0.56 0.00 96 1016.7
20260903124323 77 100 0.0 0.0 0.00 0.56 0.00 96 1016.8
20260903123825 77 100 0.0 0.0 0.00 0.56 0.00 96 1016.7
20260903123326 77 100 0.0 0.0 0.00 0.56 0.00 95 1016.9
20260903122826 76 100 0.0 0.0 0.00 0.56 0.00 95 1016.9
20260903122354 76 111 0.0 0.0 0.00 0.56 0.00 95 1016.9
20260903121833 76 111 0.0 0.0 0.00 0.56 0.00 95 1016.9
20260903121337 76 111 0.0 0.0 0.00 0.56 0.00 95 1016.9
20260903120841 76 111 0.0 0.0 0.00 0.56 0.00 95 1016.8
20260903120344 76 111 0.0 0.0 0.00 0.56 0.00 95 1016.7
20260903115844 76 111 0.0 0.0 0.00 0.56 0.00 95 1016.6
20260903115343 76 111 0.0 0.0 0.00 0.56 0.00 95 1016.6
20260903114848 76 111 0.0 0.0 0.00 0.56 0.00 95 1016.5
20260903114330 76 111 0.0 0.0 0.00 0.56 0.00 95 1016.5
20260903113832 76 111 0.0 0.0 0.00 0.56 0.00 95 1016.6
20260903113343 76 111 0.0 0.0 0.00 0.56 0.00 95 1016.5
20260903112826 76 111 0.0 1.0 0.00 0.56 0.00 95 1016.3
20260903112358 76 111 0.0 1.0 0.00 0.56 0.00 95 1016.3
20260903111840 76 111 0.0 0.0 0.00 0.56 0.00 94 1016.4
20260903111324 76 111 0.0 0.0 0.00 0.56 0.00 94 1016.3
20260903110835 76 111 0.0 0.0 0.00 0.56 0.00 94 1016.1
20260903110341 76 111 0.0 0.0 0.00 0.56 0.00 94 1016.0
20260903105823 76 111 0.0 0.0 0.00 0.56 0.00 94 1016.0
20260903105349 76 111 0.0 0.0 0.00 0.56 0.00 94 1016.0
20260903104832 76 111 0.0 0.0 0.00 0.56 0.00 94 1016.0
20260903104336 76 111 0.0 0.0 0.00 0.56 0.00 94 1015.9
20260903103839 76 111 0.0 0.0 0.00 0.56 0.00 94 1015.6
20260903103347 76 111 0.0 0.0 0.00 0.56 0.00 94 1015.5
20260903102846 76 111 0.0 0.0 0.00 0.56 0.00 94 1015.5
20260903102347 76 111 0.0 0.0 0.00 0.56 0.00 94 1015.5
20260903101849 76 111 0.0 0.0 0.00 0.56 0.00 94 1015.5
20260903101350 76 111 0.0 0.0 0.00 0.56 0.00 94 1015.5
20260903100853 76 111 0.0 0.0 0.00 0.56 0.00 94 1015.5
20260903100334 76 111 0.0 0.0 0.00 0.56 0.00 94 1015.5
20260903095835 76 111 0.0 0.0 0.00 0.56 0.00 94 1015.5
20260903095337 76 111 0.0 0.0 0.00 0.56 0.00 94 1015.5
20260903094822 76 111 0.0 0.0 0.00 0.56 0.00 94 1015.4
20260903094326 76 111 0.0 0.0 0.00 0.56 0.00 94 1015.4
20260903093830 76 111 0.0 0.0 0.00 0.56 0.00 94 1015.4
20260903093334 76 111 0.0 0.0 0.00 0.56 0.00 94 1015.5
20260903092905 76 111 0.0 0.0 0.00 0.56 0.00 94 1015.4
20260903092349 76 111 0.0 0.0 0.00 0.56 0.00 94 1015.5
20260903091838 76 111 0.0 0.0 0.00 0.56 0.00 94 1015.3
20260903091323 76 111 0.0 0.0 0.00 0.56 0.00 94 1015.3
20260903090910 76 111 0.0 0.0 0.00 0.56 0.00 94 1015.3
20260903090354 76 111 0.0 0.0 0.00 0.56 0.00 94 1015.2
20260903085836 76 111 0.0 0.0 0.00 0.56 0.00 94 1015.2
20260903085340 76 111 0.0 0.0 0.00 0.56 0.00 94 1015.2
20260903084842 76 111 0.0 0.0 0.00 0.56 0.00 94 1015.2
20260903084326 76 111 0.0 0.0 0.00 0.56 0.00 94 1015.2
20260903083837 76 111 0.0 0.0 0.00 0.56 0.00 94 1015.2
20260903083340 76 111 0.0 0.0 0.00 0.56 0.00 94 1015.1
20260903082842 76 111 0.0 0.0 0.00 0.56 0.00 94 1015.1
20260903082346 76 111 0.0 0.0 0.00 0.56 0.00 94 1015.2
20260903081850 76 111 0.0 0.0 0.00 0.56 0.00 94 1015.3
20260903081350 76 111 0.0 0.0 0.00 0.56 0.00 94 1015.2
20260903080846 76 111 0.0 0.0 0.00 0.56 0.00 94 1015.2
20260903080326 76 111 0.0 0.0 0.00 0.56 0.00 94 1015.2
20260903075823 76 111 0.0 0.0 0.00 0.56 0.00 94 1015.2
20260903075323 76 111 0.0 0.0 0.00 0.56 0.00 94 1015.2
20260903074825 76 111 0.0 0.0 0.00 0.56 0.00 94 1015.2
20260903074328 77 111 0.0 0.0 0.00 0.56 0.00 94 1015.2
20260903073831 76 111 0.0 0.0 0.00 0.56 0.00 94 1015.3
20260903073334 77 111 0.0 0.0 0.00 0.56 0.00 94 1015.3
20260903072838 77 111 0.0 0.0 0.00 0.56 0.00 94 1015.3
20260903072342 77 111 0.0 0.0 0.00 0.56 0.00 94 1015.3
20260903071825 77 111 0.0 0.0 0.00 0.56 0.00 94 1015.4
20260903071328 77 111 0.0 0.0 0.00 0.56 0.00 94 1015.4
20260903070830 77 111 0.0 0.0 0.00 0.56 0.00 93 1015.5
20260903070333 77 111 0.0 0.0 0.00 0.56 0.00 94 1015.5
20260903065858 77 111 0.0 0.0 0.00 0.56 0.00 94 1015.6
20260903065341 77 111 0.0 0.0 0.00 0.56 0.00 94 1015.6
20260903064840 77 111 0.0 0.0 0.00 0.56 0.00 93 1015.8
20260903064340 77 111 0.0 0.0 0.00 0.56 0.00 94 1015.9
20260903063840 77 111 0.0 0.0 0.00 0.56 0.00 94 1015.9
20260903063340 77 111 0.0 0.0 0.00 0.56 0.00 93 1015.9
20260903062839 77 111 0.0 0.0 0.00 0.56 0.00 93 1015.9
20260903062338 77 111 0.0 0.0 0.00 0.56 0.00 93 1015.9
20260903061907 77 111 0.0 0.0 0.00 0.56 0.00 93 1016.0
20260903061345 77 111 0.0 1.0 0.00 0.56 0.00 93 1016.0
20260903060846 77 111 0.0 1.0 0.00 0.56 0.00 93 1015.9
20260903060345 77 111 0.0 0.0 0.00 0.56 0.00 93 1016.0
20260903055845 77 111 0.0 0.0 0.00 0.56 0.00 93 1016.1
20260903055347 78 111 0.0 0.0 0.00 0.56 0.00 93 1016.2
20260903054849 78 111 0.0 0.0 0.00 0.56 0.00 93 1016.2
20260903054351 78 111 0.0 0.0 0.00 0.56 0.00 93 1016.3
20260903053831 78 111 0.0 0.0 0.00 0.56 0.00 93 1016.4
20260903053334 78 111 0.0 0.0 0.00 0.56 0.00 93 1016.4
20260903052834 78 111 0.0 0.0 0.00 0.56 0.00 93 1016.6
20260903052338 78 111 0.0 1.0 0.00 0.56 0.00 93 1016.5
20260903051841 78 111 0.0 1.0 0.00 0.56 0.00 93 1016.5
20260903051325 78 111 0.0 1.0 0.00 0.56 0.00 93 1016.6
20260903050827 78 111 0.0 1.0 0.00 0.56 0.00 93 1016.6
20260903050341 78 111 0.0 0.0 0.00 0.56 0.00 93 1016.7
20260903045842 78 111 0.0 0.0 0.00 0.56 0.00 93 1016.8
20260903045342 78 111 0.0 0.0 0.00 0.56 0.00 93 1016.7
20260903044845 78 111 0.0 0.0 0.00 0.56 0.00 93 1016.8
20260903044327 78 111 0.0 0.0 0.00 0.56 0.00 93 1016.9
20260903043830 78 111 0.0 0.0 0.00 0.56 0.00 93 1016.9
20260903043336 78 111 0.0 0.0 0.00 0.56 0.00 93 1016.9
20260903042838 78 111 0.0 0.0 0.00 0.56 0.00 93 1017.0
20260903042342 78 111 0.0 0.0 0.00 0.56 0.00 93 1017.0
20260903041844 78 111 0.0 0.0 0.00 0.56 0.00 93 1016.9
20260903041343 78 111 0.0 0.0 0.00 0.56 0.00 93 1016.8
20260903040851 78 111 0.0 0.0 0.00 0.56 0.00 93 1016.8
20260903040330 78 111 0.0 0.0 0.00 0.56 0.00 93 1016.9
20260903035854 78 111 0.0 0.0 0.00 0.56 0.56 93 1016.9
20260903035335 78 111 0.0 0.0 0.00 0.56 0.56 93 1016.9
20260903034837 78 111 0.0 0.0 0.00 0.56 0.56 93 1016.9
20260903034339 78 111 0.0 0.0 0.00 0.56 0.56 93 1016.9
20260903033841 79 111 0.0 0.0 0.00 0.56 0.56 93 1017.0
20260903033344 79 111 0.0 0.0 0.00 0.56 0.56 93 1017.1
20260903032824 79 111 0.0 1.0 0.00 0.56 0.56 93 1017.2
20260903032326 79 111 0.0 1.0 0.00 0.56 0.56 93 1017.1
20260903031828 79 73 0.0 1.0 0.00 0.56 0.56 93 1017.1
20260903031330 79 73 0.0 2.0 0.00 0.56 0.56 93 1017.1
20260903030834 79 73 1.0 2.0 0.00 0.56 0.56 93 1017.2
20260903030406 79 74 0.0 2.0 0.00 0.56 0.56 93 1017.2
20260903025847 79 74 0.0 2.0 0.00 0.56 0.56 93 1017.2
20260903025354 79 74 0.0 1.0 0.00 0.56 0.56 93 1017.3
20260903024838 79 74 0.0 1.0 0.00 0.56 0.56 93 1017.2
20260903024342 79 74 0.0 0.0 0.00 0.56 0.56 93 1017.1
20260903023827 79 74 0.0 1.0 0.00 0.56 0.56 93 1017.1
20260903023331 79 74 0.0 1.0 0.00 0.56 0.56 93 1017.0
20260903022833 79 73 0.0 2.0 0.00 0.56 0.56 93 1016.9
20260903022338 79 74 0.0 4.0 0.00 0.56 0.56 93 1016.8
20260903021842 79 88 1.0 4.0 0.00 0.56 0.56 93 1016.8
20260903021346 79 81 1.0 4.0 0.00 0.56 0.56 93 1016.8
20260903020848 79 77 1.0 4.0 0.00 0.56 0.56 93 1017.0
20260903020350 79 76 1.0 4.0 0.00 0.56 0.56 93 1017.1
20260903015850 79 74 1.0 2.0 0.00 0.56 0.56 93 1017.2
20260903015331 79 67 0.0 2.0 0.00 0.56 0.56 93 1017.2
20260903014829 79 67 0.0 0.0 0.00 0.56 0.56 93 1017.1
20260903014331 79 67 0.0 1.0 0.00 0.56 0.56 93 1017.0
20260903013902 79 67 0.0 1.0 0.00 0.56 0.56 93 1016.8
20260903013343 79 67 0.0 0.0 0.00 0.56 0.56 93 1016.7
20260903012846 79 67 0.0 2.0 0.00 0.56 0.56 93 1016.8
20260903012331 79 67 0.0 2.0 0.00 0.56 0.56 93 1016.8
20260903011834 79 67 0.0 1.0 0.00 0.56 0.56 93 1016.7
20260903011338 79 67 0.0 1.0 0.00 0.56 0.56 93 1016.6
20260903010842 79 67 0.0 1.0 0.00 0.56 0.56 93 1016.5
20260903010326 80 63 1.0 1.0 0.00 0.56 0.56 93 1016.5
20260903005829 80 63 0.0 2.0 0.00 0.56 0.56 93 1016.7
20260903005332 80 63 0.0 0.0 0.00 0.56 0.56 93 1016.7
20260903004902 80 63 0.0 1.0 0.00 0.56 0.56 93 1016.6
20260903004339 80 63 0.0 1.0 0.00 0.56 0.56 93 1016.5
20260903003842 80 63 0.0 1.0 0.00 0.56 0.56 93 1016.5
20260903003412 80 63 0.0 0.0 0.00 0.56 0.56 93 1016.6
20260903002852 80 63 0.0 2.0 0.00 0.56 0.56 93 1016.5
20260903002333 80 63 0.0 2.0 0.00 0.56 0.56 93 1016.5
20260903001835 80 19 0.0 1.0 0.00 0.56 0.56 93 1016.6
20260903001337 80 355 0.0 1.0 0.00 0.56 0.56 93 1016.5
20260903000839 80 355 0.0 1.0 0.00 0.56 0.56 93 1016.5
20260903000341 80 13 0.0 1.0 0.00 0.56 0.56 93 1016.6
20260902235842 80 13 0.0 1.0 0.00 0.56 0.56 93 1016.7
20260902235326 80 13 0.0 1.0 0.00 0.56 0.56 93 1016.5
20260902234830 81 13 0.0 0.0 0.00 0.56 0.56 93 1016.4
20260902234332 81 13 0.0 0.0 0.00 0.56 0.56 93 1016.4
20260902233835 81 13 0.0 0.0 0.00 0.56 0.56 93 1016.5
20260902233340 81 13 0.0 2.0 0.00 0.56 0.56 93 1016.6
20260902232823 81 13 0.0 2.0 0.00 0.56 0.56 92 1016.3
20260902232326 81 13 0.0 0.0 0.00 0.56 0.56 92 1016.1
20260902231828 81 13 0.0 2.0 0.00 0.56 0.56 92 1016.1
20260902231359 81 13 0.0 2.0 0.00 0.56 0.56 92 1016.1
20260902230840 81 360 0.0 3.0 0.00 0.56 0.56 92 1016.0
20260902230342 81 5 0.0 8.0 0.00 0.56 0.56 92 1015.9
20260902225843 81 17 1.0 8.0 0.00 0.56 0.56 92 1015.9
20260902225346 81 25 0.0 1.0 0.00 0.56 0.56 93 1015.8
20260902224826 81 25 0.0 1.0 0.00 0.56 0.56 93 1015.8
20260902224330 81 30 0.0 1.0 0.00 0.56 0.56 93 1015.9
20260902223830 81 31 0.0 1.0 0.00 0.56 0.56 93 1015.9
20260902223332 81 32 0.0 1.0 0.00 0.56 0.56 93 1015.8
20260902222832 81 32 0.0 1.0 0.00 0.56 0.56 92 1015.6
20260902222334 81 32 0.0 1.0 0.00 0.56 0.56 92 1015.6
20260902221835 81 32 0.0 0.0 0.00 0.56 0.56 92 1015.5
20260902221337 81 32 0.0 0.0 0.00 0.56 0.56 92 1015.5
20260902220840 81 32 0.0 1.0 0.00 0.56 0.56 92 1015.5
20260902220413 81 32 0.0 1.0 0.00 0.56 0.56 92 1015.4
20260902215832 81 32 0.0 1.0 0.00 0.56 0.56 92 1015.4
20260902215343 81 350 0.0 1.0 0.00 0.56 0.56 92 1015.4
20260902214845 81 349 0.0 0.0 0.00 0.56 0.56 92 1015.5
20260902214345 81 349 0.0 0.0 0.00 0.56 0.56 92 1015.6
20260902213849 81 348 0.0 2.0 0.00 0.56 0.56 92 1015.8
20260902213333 81 348 0.0 2.0 0.00 0.56 0.56 92 1015.9
20260902212902 81 348 0.0 1.0 0.00 0.56 0.56 92 1015.9
20260902212342 81 355 0.0 1.0 0.00 0.56 0.56 92 1015.9
20260902211824 81 355 0.0 2.0 0.00 0.56 0.56 92 1016.1
20260902211326 81 355 0.0 2.0 0.00 0.56 0.56 92 1016.2
20260902210828 81 9 0.0 2.0 0.00 0.56 0.56 92 1016.2
20260902210330 81 341 0.0 1.0 0.00 0.56 0.56 92 1016.0
20260902205830 81 341 0.0 1.0 0.00 0.56 0.56 92 1016.0
20260902205333 81 321 0.0 1.0 0.00 0.56 0.56 92 1016.0
20260902204834 81 20 0.0 2.0 0.00 0.56 0.56 92 1015.9
20260902204334 81 20 0.0 2.0 0.00 0.56 0.56 91 1016.0
20260902203837 81 52 0.0 3.0 0.00 0.56 0.56 91 1016.1
20260902203343 81 323 1.0 3.0 0.00 0.56 0.56 91 1015.8
20260902202843 82 5 0.0 2.0 0.00 0.56 0.56 91 1015.5
20260902202345 82 51 0.0 1.0 0.00 0.56 0.56 92 1015.5
20260902201849 82 51 0.0 1.0 0.00 0.56 0.56 91 1015.5
20260902201353 82 53 0.0 0.0 0.00 0.56 0.56 91 1015.5
20260902200842 82 53 0.0 1.0 0.00 0.56 0.56 91 1015.6
20260902200343 82 53 0.0 2.0 0.00 0.56 0.56 91 1016.0
20260902195842 82 53 0.0 3.0 0.00 0.69 0.56 92 1016.1
20260902195344 82 69 0.0 5.0 0.00 0.69 0.56 91 1016.1
20260902194846 82 300 1.0 5.0 0.00 0.69 0.56 91 1016.1
20260902194345 82 345 0.0 3.0 0.00 0.69 0.56 91 1016.2
20260902193845 82 331 0.0 1.0 0.01 0.69 0.56 91 1016.1
20260902193348 82 84 0.0 2.0 0.04 0.69 0.56 91 1016.0
20260902192850 82 283 0.0 3.0 0.13 0.69 0.56 91 1016.2
20260902192348 81 9 1.0 3.0 0.32 0.69 0.56 90 1016.5
20260902191850 81 360 0.0 2.0 0.50 0.69 0.56 90 1016.5
20260902191352 81 350 1.0 2.0 0.56 0.69 0.56 90 1016.4
20260902190840 82 302 0.0 2.0 0.56 0.69 0.56 89 1016.1
20260902190324 82 264 0.0 1.0 0.56 0.69 0.56 90 1016.2
20260902185825 82 263 0.0 1.0 0.56 0.69 0.56 89 1016.5
20260902185348 82 245 0.0 4.0 0.56 0.69 0.56 89 1016.7
20260902184832 82 9 1.0 4.0 0.56 0.69 0.56 89 1016.7
20260902184331 82 295 0.0 2.0 0.56 0.69 0.56 89 1016.7
20260902183835 82 54 0.0 3.0 0.55 0.68 0.55 89 1016.7
20260902183340 82 54 0.0 7.0 0.52 0.65 0.52 88 1016.7
20260902182843 83 140 3.0 10.0 0.42 0.55 0.42 85 1016.9
20260902182346 86 123 5.0 10.0 0.22 0.35 0.22 82 1016.9
20260902181856 89 80 3.0 10.0 0.05 0.18 0.05 76 1016.8
20260902181337 91 36 1.0 5.0 0.00 0.13 0.00 73 1016.5
20260902180838 92 10 1.0 5.0 0.00 0.13 0.00 71 1016.5
20260902180341 92 132 1.0 5.0 0.00 0.13 0.00 72 1016.7
20260902175840 91 305 1.0 4.0 0.00 0.13 0.00 74 1016.7
20260902175341 92 46 1.0 4.0 0.00 0.13 0.00 75 1016.7
20260902174823 91 30 1.0 4.0 0.00 0.13 0.00 75 1016.7
20260902174325 91 57 1.0 5.0 0.00 0.13 0.00 74 1016.8
20260902173830 91 65 2.0 5.0 0.00 0.13 0.00 72 1016.8
20260902173334 92 22 0.0 3.0 0.00 0.13 0.00 75 1016.9
20260902172833 91 25 1.0 3.0 0.00 0.13 0.00 76 1016.8
20260902172403 90 36 1.0 5.0 0.00 0.13 0.00 77 1016.9
20260902171844 89 40 1.0 6.0 0.00 0.13 0.00 72 1017.0